Regional Weather Roundup
Issued by NWS Little Rock, AR

Home | Current Version | Previous Version | Graphics & Text | Print | Product List | Glossary On
Versions: 1 2 3 4 5 6 7 8 9 10 11 12 13 14 15 16 17 18 19 20 21 22 23 24 25 26 27 28 29 30 31 32
000
ASUS44 KLZK 241105
RWRLZK

WEATHER ROUNDUP FOR ARKANSAS
NATIONAL WEATHER SERVICE LITTLE ROCK AR
600 AM CDT SUN SEP 24 2017

NOTE: "FAIR" INDICATES FEW OR NO CLOUDS BELOW 12,000 FEET WITH NO
SIGNIFICANT WEATHER AND/OR OBSTRUCTIONS TO VISIBILITY.

ARZ001-003-010-029-241200-
NORTHWEST ARKANSAS

CITY           SKY/WX    TMP DP  RH WIND       PRES   REMARKS
FAYETTEVILLE   CLEAR     61  61 100 CALM      30.00R
FORT SMITH     CLEAR     71  68  90 E5        29.95R
HARRISON       CLEAR     67  65  93 CALM      30.02R
BENTONVILLE    CLEAR     67  64  90 SE3       30.02R
ROGERS         CLEAR     69  66  90 E6        30.01R
SILOAM SPGS    CLEAR     67  64  90 E3        29.99S
HIGHFILL       CLEAR     66  65  96 CALM      30.00R
SPRINGDALE     CLEAR     68  66  94 CALM      30.01
$$

ARZ004-005-016-241200-
NORTH CENTRAL ARKANSAS

CITY           SKY/WX    TMP DP  RH WIND       PRES   REMARKS
BATESVILLE     CLEAR     67  66  97 CALM      30.00R FOG
FLIPPIN        CLEAR     66  64  93 CALM      30.00
MTN HOME       CLEAR     68  67  96 E5        30.00R
$$

ARZ040-041-241200-
WEST CENTRAL ARKANSAS

CITY           SKY/WX    TMP DP  RH WIND       PRES   REMARKS
MENA           CLEAR     64  64 100 CALM      29.99R
MOUNT IDA      CLEAR     65  63  93 CALM      29.95S
$$

ARZ009-017-025-026-028-241200-
NORTHEAST ARKANSAS

CITY           SKY/WX    TMP DP  RH WIND       PRES   REMARKS
CORNING        FAIR      70  70 100 NE6       30.00S
JONESBORO      CLEAR     70  70 100 NE3       30.00R
NEWPORT        CLEAR     66  65  96 E3        30.00R
BLYTHEVILLE    CLEAR     70  69  97 E3        30.00S
$$

ARZ022-023-033-042-044-241200-
CENTRAL ARKANSAS

CITY           SKY/WX    TMP DP  RH WIND       PRES   REMARKS
LITTLE ROCK    CLEAR     70  70 100 E3        29.97R
JACKSONVILLE   CLEAR     69  68  99 CALM      29.97R
CONWAY           N/A     68  66  94 NE3       29.95S
SEARCY         PTCLDY    69  69 100 CALM      30.00R
HOT SPRINGS    CLEAR     73  69  87 E6        29.97R
RUSSELLVILLE   CLEAR     69  68  96 CALM      29.96R
CLINTON        FAIR      64  64 100 CALM      29.99S FOG
$$

ARZ036-241200-
EAST ARKANSAS

CITY           SKY/WX    TMP DP  RH WIND       PRES   REMARKS
WEST MEMPHIS   CLEAR     70  70 100 CALM      29.99R
$$

ARZ050-053-066-070-073-241200-
SOUTHWEST ARKANSAS

CITY           SKY/WX    TMP DP  RH WIND       PRES   REMARKS
ARKADELPHIA    FAIR      66  66 100 CALM      29.96S
CAMDEN         FOG       66  64  94 CALM      29.95R VSB 1/4
TEXARKANA      CLEAR     68  68 100 CALM      29.94R
EL DORADO      CLEAR     68  67  96 CALM      29.95S
DE QUEEN       CLEAR     67  67 100 CALM      29.93R FOG
$$

ARZ056-057-069-241200-
SOUTHEAST ARKANSAS

CITY           SKY/WX    TMP DP  RH WIND       PRES   REMARKS
PINE BLUFF     PTCLDY    69  67  93 CALM      29.97R
STUTTGART      CLEAR     71  69  93 E5        29.98R
MONTICELLO     PTCLDY    70  68  93 CALM      29.97R

$$






USA.gov is the U.S. government's official web portal to all federal, state and local government web resources and services.